www.pogodaiklimat.ru

Погода и климат >> Архив погоды >> Австрия >> Вельс / Шлайсхайм


ПОГОДА в Вельс / Шлайсхайм

  • Прогноз погоды в Вельс / Шлайсхайм
  • Монитор погоды в Вельс / Шлайсхайм

АРХИВ ПОГОДЫ в Вельс / Шлайсхайм

Время (UTC), дата Ветер
(напр.,м/с)
 
Видим.   Явления Облачность Т
(С)
Тd
(С)
f
(%)
Тe
(С)
Тes
(С)
Комфортность P
(гПа)
Po
(гПа)
Тmin
(С)
Tmax
(С)
R
(мм)
R24
(мм)
S
(см)
16 10.07 СЗ 4 н/о н/о +21.3 +5.2 35 +22 +22 комфорт 1016.0 980.0
17 10.07 З 4 н/о н/о +21.7 +5.5 35 +22 +22 комфорт 1015.7 979.8
18 10.07 З 4 н/о н/о +21.5 +5.7 36 +22 +22 комфорт 1015.7 979.7 +13.7 +21.7
19 10.07 З 3 н/о н/о +20.1 +7.0 43 +21 +21 комфорт 1016.0 979.9
20 10.07 Ю 1 н/о н/о +16.5 +7.7 56 +17 +17 1016.7 980.1
21 10.07 штиль 0 н/о н/о +15.0 +8.0 63 +15 +15 1016.8 980.0
22 10.07 З 2 н/о н/о +14.2 +8.0 66 +14 +14 1017.1 980.2
23 10.07 З 2 н/о н/о +12.9 +8.2 73 +12 +12 1017.0 980.0
00 11.07 штиль 0 н/о н/о +12.2 +8.0 75 +12 +12 1017.0 979.9
01 11.07 ЮЗ 1 н/о н/о +11.9 +8.0 77 +12 +12 1016.9 979.7
02 11.07 ЮЗ 1 н/о н/о +11.7 +8.1 79 +12 +12 1016.4 979.2
03 11.07 З 2 н/о н/о +12.4 +8.1 75 +12 +12 1016.1 979.0
04 11.07 З 1 н/о н/о +11.8 +8.0 78 +12 +12 1016.4 979.2
05 11.07 З 1 н/о н/о +13.9 +9.2 73 +14 +14 1016.0 979.1
06 11.07 З 2 н/о н/о +15.0 +8.7 66 +15 +15 1015.9 979.2 +11.1 +21.6
07 11.07 ЮЗ 1 н/о н/о +15.8 +8.8 63 +17 +17 1015.8 979.2
08 11.07 З 1 н/о н/о +17.1 +9.6 61 +18 +18 1015.4 979.0 0.0
09 11.07 СЗ 2 н/о н/о +18.2 +9.4 56 +19 +19 1015.3 979.0 0.0
10 11.07 СЗ 2 н/о н/о +19.3 +9.1 52 +21 +21 комфорт 1015.1 978.9
11 11.07 З 2 н/о н/о +19.9 +7.0 43 +21 +21 комфорт 1014.7 978.6
12 11.07 СЗ 2 н/о н/о +21.1 +6.8 39 +22 +22 комфорт 1013.9 978.0 0.0
13 11.07 З 1 н/о н/о +22.5 +6.6 36 +23 +23 комфорт 1013.1 977.4
14 11.07 З 2 н/о н/о +22.5 +8.1 40 +24 +24 комфорт 1012.7 977.0
15 11.07 СЗ 4 н/о н/о +22.6 +7.3 37 +23 +23 комфорт 1012.5 976.8
16 11.07 СЗ 3 н/о н/о +22.2 +8.3 41 +23 +23 комфорт 1012.3 976.6
17 11.07 СЗ 2 н/о н/о +21.7 +9.4 45 +23 +23 комфорт 1012.4 976.6
18 11.07 З 2 н/о н/о +21.6 +8.7 44 +23 +23 комфорт 1012.4 976.6 +14.8 +23.1 0.0
19 11.07 З 6 н/о н/о +18.8 +11.0 60 +19 +19 1014.0 977.8
20 11.07 З 6 н/о н/о +17.6 +11.7 68 +17 +17 1014.7 978.4
21 11.07 З 4 н/о осадки н/о +15.9 +13.6 86 +15 +15 1015.2 978.7 0.3
22 11.07 З 2 н/о в посл. час осадки н/о +15.4 +13.9 91 +15 +15 1015.3 978.7 0.2
23 11.07 ЮЗ 1 н/о ливневой дождь н/о +15.2 +14.0 93 +16 +16 1015.3 978.7 0.4
00 12.07 ЮЗ 1 н/о осадки {ливн. осадки} н/о +15.2 +14.3 94 +16 +16 1014.8 978.2 1
01 12.07 З 2 н/о осадки н/о +14.9 +13.9 94 +15 +15 1014.5 977.9 0.5
02 12.07 ЮЗ 2 н/о осадки н/о +14.7 +13.6 93 +14 +14 1014.3 977.6 0.2
03 12.07 З 1 н/о ливневой дождь {осадки} н/о +14.5 +13.5 94 +15 +15 1014.3 977.6 0.9
04 12.07 З 1 н/о в посл. час осадки н/о +14.6 +13.7 94 +15 +15 1014.3 977.6 0.2
05 12.07 З 2 н/о н/о +15.1 +14.0 93 +15 +15 1014.5 977.9
06 12.07 З 2 н/о {ливн. осадки} н/о +15.8 +13.9 88 +16 +16 1014.4 977.9 +14.5 +21.6 2
07 12.07 СЗ 4 н/о н/о +16.6 +13.7 83 +16 +16 1014.3 977.9
08 12.07 З 2 н/о н/о +17.7 +13.5 76 +18 +18 1013.9 977.6
09 12.07 З 3 н/о н/о +19.3 +13.6 70 +21 +21 комфорт 1013.5 977.4
10 12.07 З 4 н/о н/о +20.9 +12.9 60 +24 +24 комфорт 1012.8 976.9
11 12.07 З 6 н/о н/о +22.0 +12.3 54 +24 +24 комфорт 1012.0 976.3
12 12.07 З 4 н/о н/о +21.3 +12.8 58 +24 +24 комфорт 1011.8 976.0 0.0
13 12.07 З 3 н/о н/о +22.0 +11.7 52 +24 +24 комфорт 1011.3 975.6 0.0
14 12.07 З 3 н/о н/о +20.9 +13.8 64 +24 +24 комфорт 1011.6 975.8
15 12.07 З 4
{15}
н/о осадки н/о +15.7 +14.0 90 +15 +15 1013.3 976.8 2
16 12.07 З 2 н/о в посл. час осадки н/о +17.3 +14.8 85 +18 +18 1012.4 976.2 0.1
17 12.07 З 2 н/о н/о +18.0 +15.1 83 +19 +19 1011.7 975.6
18 12.07 З 3
{15}
н/о {осадки} н/о +18.6 +15.9 84 +20 +20 1011.2 975.2 +15.7 +22.7 2
19 12.07 Ю 1 н/о н/о +17.3 +15.2 87 +18 +18 1011.5 975.3
20 12.07 Ю 1 н/о н/о +15.7 +14.8 94 +16 +16 1012.0 975.6
21 12.07 штиль 0 н/о н/о +15.4 +14.3 93 +15 +15 1012.1 975.6
22 12.07 ЮВ 1 н/о н/о +14.8 +13.9 94 +15 +15 1012.1 975.5
23 12.07 ЮВ 1 н/о н/о +14.8 +13.9 94 +15 +15 1011.6 975.1
00 13.07 СЗ 2 н/о в посл. час осадки н/о +16.1 +14.0 87 +16 +16 1012.1 975.7 0.6
01 13.07 З 2 н/о осадки н/о +15.1 +13.6 91 +15 +15 1012.1 975.6 3
02 13.07 З 2 н/о в посл. час осадки н/о +14.2 +13.2 94 +14 +14 1012.2 975.6 0.2
03 13.07 З 1 н/о {осадки} н/о +14.3 +13.2 93 +15 +15 1012.0 975.4 3
04 13.07 З 3 н/о н/о +15.1 +13.3 89 +14 +14 1012.2 975.7 0.0
05 13.07 З 4 н/о осадки н/о +14.6 +13.6 94 +13 +13 1012.5 975.9 2
06 13.07 З 4 н/о осадки {ливн. осадки} н/о +14.7 +13.6 93 +13 +13 1013.0 976.4 +14.1 +19.0 7
07 13.07 З 6 н/о осадки н/о +14.7 +12.8 88 +13 +13 1013.5 976.9 0.8
08 13.07 З 5 н/о ливневой дождь н/о +15.0 +13.3 90 +14 +14 1014.0 977.4 0.4
09 13.07 З 5 н/о осадки {ливн. осадки} н/о +15.0 +13.7 92 +14 +14 1014.2 977.6 3
10 13.07 З 4 н/о осадки н/о +15.2 +14.0 93 +14 +14 1014.5 977.9 1
11 13.07 З 5 н/о в посл. час осадки н/о +15.4 +13.9 91 +14 +14 1014.7 978.1 1
12 13.07 З 4 н/о осадки {ливн. осадки} н/о +16.3 +14.1 87 +16 +16 1014.6 978.1 6
14 13.07 З 5 н/о в посл. час осадки н/о +16.1 +14.4 90 +15 +15 1014.5 978.0 3
15 13.07 З 4 н/о {ливн. осадки} н/о +16.6 +14.7 89 +16 +16 1014.2 977.8 3
17 13.07 З 4 н/о в посл. час осадки н/о +16.5 +13.7 84 +16 +16 1015.0 978.5 0.1
18 13.07 З 3 н/о ливневой дождь н/о +14.8 +13.6 93 +14 +14 1015.5 978.8 +14.4 +17.3 11
19 13.07 З 2 н/о н/о +14.8 +13.6 93 +14 +14 1015.8 979.1
20 13.07 З 2 н/о н/о +14.7 +13.3 91 +14 +14 1016.0 979.3
21 13.07 З 4 н/о н/о +14.9 +13.1 89 +14 +14 1015.9 979.2
22 13.07 З 2 н/о н/о +14.7 +13.1 90 +14 +14 1016.3 979.6 0.0
23 13.07 З 3 н/о н/о +14.8 +12.8 88 +14 +14 1016.3 979.6 0.0
00 14.07 З 2 н/о н/о +14.9 +13.0 88 +15 +15 1016.0 979.3 0.0
01 14.07 З 3 н/о н/о +15.0 +13.1 88 +14 +14 1015.6 978.9 0.0
02 14.07 З 2 н/о н/о +14.9 +13.3 90 +15 +15 1015.4 978.7
03 14.07 З 2 н/о н/о +14.9 +13.3 90 +15 +15 1015.6 978.9 0.0
04 14.07 З 3 н/о н/о +15.0 +13.5 91 +14 +14 1015.4 978.7
05 14.07 З 2 н/о в посл. час осадки н/о +14.9 +13.9 94 +15 +15 1015.5 978.8 2
06 14.07 З 4 н/о {осадки} н/о +15.5 +13.8 90 +14 +14 1015.5 978.9 +14.6 +15.5 2
07 14.07 З 4 н/о н/о +15.9 +13.7 87 +15 +15 1015.8 979.2
08 14.07 З 4 н/о н/о +16.7 +13.4 81 +16 +16 1015.7 979.2
09 14.07 З 3 н/о н/о +17.9 +13.1 73 +18 +18 1015.3 979.0
10 14.07 З 2 н/о н/о +19.0 +12.9 68 +21 +21 комфорт 1014.8 978.6
11 14.07 З 2 н/о н/о +20.6 +12.2 59 +23 +23 комфорт 1014.5 978.5
12 14.07 Ю 1 н/о осадки н/о +16.7 +13.8 83 +18 +18 1015.0 978.6 2
13 14.07 Ю 1 н/о в посл. час осадки н/о +16.2 +14.7 91 +17 +17 1015.0 978.5 4
14 14.07 З 2 н/о н/о +17.0 +15.1 89 +17 +17 1015.3 978.9
15 14.07 ЮЗ 1 н/о {осадки} н/о +17.1 +14.6 85 +18 +18 1015.0 978.6 4
16 14.07 СВ 1 н/о осадки н/о +17.6 +14.2 80 +19 +19 1014.5 978.2 0.2
17 14.07 СВ 1 н/о ливневой дождь н/о +16.8 +15.2 90 +18 +18 1015.1 978.7 0.1
18 14.07 В 1 н/о в посл. час осадки {ливн. осадки} н/о +16.6 +14.7 89 +17 +17 1015.0 978.6 +15.4 +20.8 6
19 14.07 ЮВ 1 н/о н/о +15.7 +14.8 94 +16 +16 1015.4 978.8
20 14.07 Ю 1 н/о н/о +14.7 +13.9 95 +15 +15 1015.7 979.0
21 14.07 штиль 0 н/о н/о +13.5 +13.0 97 +13 +13 1015.9 979.0
22 14.07 Ю 1 н/о н/о +13.0 +12.7 98 +13 +13 1015.9 979.0
23 14.07 ЮВ 1 н/о н/о +12.6 +12.4 99 +12 +12 1016.0 979.0
00 15.07 штиль 0 н/о н/о +11.9 +11.6 98 +11 +11 1016.0 978.9
01 15.07 ЮВ 1 н/о н/о +11.5 +11.3 99 +11 +11 1015.9 978.8
02 15.07 З 1 н/о н/о +11.9 +11.9 100 +12 +12 1015.7 978.6
03 15.07 штиль 0 н/о н/о +12.1 +12.1 100 +11 +11 1015.6 978.6
04 15.07 С 1 н/о н/о +12.3 +12.3 100 +12 +12 1015.9 978.9
05 15.07 штиль 0 н/о н/о +12.5 +12.5 100 +12 +12 1016.0 979.0
06 15.07 ЮВ 1 н/о н/о +13.2 +13.1 99 +13 +13 1016.0 979.1 +11.4 +16.7
07 15.07 В 1 н/о н/о +14.0 +13.4 96 +14 +14 1016.0 979.2
08 15.07 С 1 н/о н/о +16.5 +13.6 83 +17 +17 1015.7 979.2 0.0
09 15.07 В 1 н/о н/о +18.4 +13.7 74 +20 +20 1015.2 979.0 0.0
10 15.07 ЮВ 2 н/о н/о +20.9 +14.1 65 +24 +24 комфорт 1014.7 978.8
11 15.07 В 2 н/о н/о +20.7 +11.6 56 +23 +23 комфорт 1014.8 978.8
12 15.07 СВ 1 н/о н/о +21.6 +11.5 53 +24 +24 комфорт 1014.2 978.4 0.0
13 15.07 В 2 н/о н/о +21.5 +12.5 57 +24 +24 комфорт 1014.0 978.2
14 15.07 СВ 2 н/о н/о +23.0 +11.7 49 +25 +25 комфорт 1013.5 977.9
15 15.07 В 2 н/о н/о +23.5 +10.0 42 +25 +25 комфорт 1013.4 977.8
16 15.07 СВ 1 н/о н/о +23.7 +10.2 42 +25 +25 комфорт 1013.1 977.5
17 15.07 СВ 1 н/о н/о +23.7 +10.2 42 +25 +25 комфорт 1013.0 977.4
18 15.07 СЗ 2 н/о н/о +22.7 +9.1 42 +24 +24 комфорт 1013.2 977.5 +12.9 +24.2 0.0
19 15.07 ЮВ 1 н/о н/о +18.4 +11.6 65 +20 +20 1014.1 977.9
20 15.07 Ю 1 н/о н/о +17.1 +13.0 77 +18 +18 1014.6 978.2
21 15.07 штиль 0 н/о н/о +15.7 +12.9 83 +15 +15 1015.2 978.6
22 15.07 Ю 1 н/о н/о +14.4 +12.6 89 +15 +15 1015.3 978.6
23 15.07 штиль 0 н/о н/о +13.4 +12.2 92 +13 +13 1015.8 978.9
00 16.07 Ю 1 н/о н/о +13.5 +11.5 88 +14 +14 1015.8 978.9
01 16.07 штиль 0 н/о н/о +12.9 +11.1 89 +12 +12 1015.9 978.9
02 16.07 штиль 0 н/о н/о +12.3 +10.7 90 +12 +12 1016.0 978.9
03 16.07 штиль 0 н/о н/о +11.9 +10.6 92 +11 +11 1016.0 978.9
04 16.07 З 1 н/о н/о +12.3 +11.1 92 +12 +12 1015.9 978.9
05 16.07 З 2 н/о н/о +14.3 +11.5 83 +14 +14 1016.0 979.2
06 16.07 З 3 н/о н/о +15.7 +11.9 78 +15 +15 1015.9 979.3 +11.7 +23.3
07 16.07 З 3 н/о н/о +17.8 +12.8 73 +18 +18 1015.5 979.2
08 16.07 З 3 н/о н/о +19.5 +12.7 65 +21 +21 комфорт 1015.1 979.0
09 16.07 З 5 н/о н/о +20.8 +12.1 57 +23 +23 комфорт 1014.8 978.9
10 16.07 З 5 н/о н/о +21.4 +12.1 55 +24 +24 комфорт 1014.8 978.9 0.0
11 16.07 З 6 н/о н/о +22.1 +12.3 54 +25 +25 комфорт 1014.6 978.8
12 16.07 З 6 н/о н/о +22.7 +11.9 50 +25 +25 комфорт 1014.3 978.6 0.0
13 16.07 З 5 н/о н/о +23.2 +11.6 48 +26 +26 жарко 1014.0 978.4
14 16.07 З 7 н/о н/о +24.0 +10.7 43 +25 +25 комфорт 1013.6 978.1
15 16.07 З 5 н/о н/о +24.3 +10.0 40 +25 +25 комфорт 1013.4 977.9
16 16.07 СЗ 5 н/о н/о +24.5 +10.2 40 +25 +25 комфорт 1013.1 977.6
17 16.07 З 5 н/о н/о +24.3 +9.6 39 +25 +25 комфорт 1013.1 977.6
18 16.07 СЗ 4 н/о н/о +23.8 +10.3 42 +25 +25 комфорт 1013.2 977.6 +15.1 +24.7 0.0
19 16.07 З 2 н/о н/о +22.3 +11.2 49 +24 +24 комфорт 1013.6 977.9
20 16.07 штиль 0 н/о н/о +17.7 +12.2 70 +18 +18 1014.5 978.2
21 16.07 ЮЗ 1 н/о н/о +16.2 +12.3 78 +17 +17 1015.0 978.5
22 16.07 штиль 0 н/о н/о +16.2 +11.4 73 +16 +16 1015.1 978.6
23 16.07 штиль 0 н/о н/о +15.1 +11.5 79 +15 +15 1015.5 978.8
00 17.07 ЮЗ 1 н/о н/о +15.5 +11.1 75 +16 +16 1015.5 978.9
01 17.07 штиль 0 н/о н/о +14.3 +11.5 83 +14 +14 1015.6 978.8
02 17.07 штиль 0 н/о н/о +13.3 +11.6 89 +13 +13 1015.5 978.6
03 17.07 штиль 0 н/о н/о +12.3 +11.3 94 +12 +12 1015.4 978.4
04 17.07 ЮВ 1 н/о н/о +12.1 +11.0 93 +12 +12 1015.6 978.5
05 17.07 В 1 н/о н/о +14.1 +12.4 89 +14 +14 1015.2 978.4
06 17.07 штиль 0 н/о н/о +16.3 +12.3 77 +16 +16 1014.9 978.4 +11.8 +24.1
07 17.07 СВ 1 н/о н/о +18.0 +12.6 71 +19 +19 1014.5 978.2
08 17.07 СВ 1 н/о н/о +20.4 +13.0 62 +24 +24 комфорт 1014.0 978.0
09 17.07 штиль 0 н/о н/о +22.0 +12.2 54 +24 +24 комфорт 1013.6 977.8
10 17.07 З 1 н/о н/о +23.0 +11.8 49 +25 +25 комфорт 1012.9 977.3
11 17.07 СЗ 3 н/о н/о +23.8 +10.6 43 +25 +25 комфорт 1012.2 976.7
12 17.07 СЗ 3 н/о н/о +24.9 +11.0 42 +26 +26 жарко 1011.8 976.4
14 17.07 З 4 н/о н/о +25.6 +11.3 41 +27 +27 жарко 1010.9 975.6
15 17.07 СЗ 3 н/о н/о +26.0 +11.8 41 +27 +27 жарко 1010.5 975.3
16 17.07 З 2 н/о н/о +26.7 +11.8 39 +28 +28 жарко 1009.8 974.7

 

Местоположение метеостанции Вельс / Шлайсхайм (Австрия): широта 48.17 долгота 14.07 высота над уровнем моря 312 м.

В архиве по умолчанию представлена погода в Вельс / Шлайсхайм за последнюю неделю. Архивные данные за месяц целиком и за предыдущие месяцы, начиная с января 2011 года, Вы можете получить, выбрав интересующий диапазон дат из раскрывающегося списка и нажав кнопку "Ввод!".


*Определитесь, кто Вы:
робот инопланетянин человек

Внимание! Время в таблицах - всемирное. Для получения местного времени необходимо прибавить поправку, которая равна 1 ч.

Смотрите также архив погоды в соседних городах и на ближайших метеорологических станциях:

Погода в Линце (Австрия) (11 км)
Погода в Кремсмюнстере (Австрия) (14 км)
Погода в Линце город (Австрия) (21 км)
Погода в Вольфсегг-ам-Хаусрукке (Австрия) (31 км)
Погода в Гмундене (Австрия) (36 км)
Погода в Рид-им-Иннкрайсе (Австрия) (44 км)
Погода в Рорбахе (Австрия) (45 км)
Погода в Фойеркогеле (Австрия) (47 км)
Погода в Франкенмаркте (Австрия) (52 км)
Погода в Виндишгарстене (Австрия) (53 км)

Пояснения к столбцам:

Ветер - указаны скорость ветра в м/с - средняя за 10 мин, порывы в срок и между сроками (в фигурных скобках) и направление, откуда дует ветер: С - северный, СВ - северо-восточный, В - восточный, ЮВ - юго-восточный, Ю - южный, ЮЗ - юго-западный, З - западный, СЗ - северо-западный.
Видимость - горизонтальная дальность видимости в метрах или километрах. При видимости от 1 до 10 км при отсутствии осадков обычно наблюдается дымка, при ухудшении видимости до 1 км и менее - туман. В сухую погоду видимость может ухудшаться дымом, пылью или мглою.
Явления - указаны атмосферные явления, наблюдавшиеся в срок или в последний час перед сроком; фигурными скобками обозначены явления, наблюдавшиеся между сроками (за 1-3 часа до срока); квадратными скобками обозначены град или гололедные отложения с указанием их диаметра в мм.
Облачность - указаны через наклонную черту общая и нижняя облачность в баллах и высота нижней границы облаков в метрах; квадратными скобками обозначены формы облаков: Ci - перистые, Cs - перисто-слоистые, Cc - перисто-кучевые, Ac - высококучевые, As - высокослоистые, Sc - слоисто-кучевые, Ns - слоисто-дождевые, Cu - кучевые, Cb - кучево-дождевые. Подробнее классификацию облаков см. в Атласе облаков (PDF).
T - Температура воздуха - температура, измеренная на высоте 2 м над землей.
Td - Температура точки росы - температура, при понижении до которой содержащийся в воздухе водяной пар достигнет насыщения.
f - Относительная влажность воздуха - влажноcть воздуха, измеренная на высоте 2 м над землей.
Te - Эффективная температура - температура, которую ощущает одетый по сезону человек в тени. Характеристика душности погоды. При расчете учитывается влияние влажности воздуха и скорости ветра на теплоощущения человека.
Tes - Эффективная температура на солнце - температура, которую ощущает человек, с поправкой на солнечный нагрев. Характеристика знойности погоды. Зависит от высоты солнца над горизонтом, облачности и скорости ветра. Ночью, в пасмурную погоду, а также при ветре 12 м/с и более поправка равна нулю.
P - Атмосферное давление - приведенное к уровню моря атмосферное давление.
Po - Атмосферное давление - измеренное на уровне метеостанции атмосферное давление.
Tmin - Минимальная температура - минимум температуры воздуха на высоте 2 м над землей.
Tmax - Максимальная температура - максимум температуры воздуха на высоте 2 м над землей.
R - Количество осадков - Количество выпавших осадков за период времени, мм. При наведении курсора мыши на число - период времени, за который выпало указанное количество осадков.
R24 - Количество осадков - Количество выпавших осадков за 24 часа, мм.
S - Снежный покров - Высота снежного покрова, см. При наведении курсора мыши на число - состояние снежного покрова и степень покрытия местности в баллах.